Weather History for KHLN - May, 2014

Change the Weather History Date:

Monday, May 26, 2014

  Actual Average Record
Temperature  
Mean Temperature 66 °F 57 °F  
Max Temperature 80 °F 70 °F 88 °F (1966)
Min Temperature 51 °F 44 °F 29 °F (1975)
Degree Days  
Heating Degree Days 0 9  
Month to date heating degree days 295 311  
Since 1 July heating degree days 7306 7365  
Cooling Degree Days 1 0  
Month to date cooling degree days 4 0  
Year to date cooling degree days 4 0  
Growing Degree Days 15 (Base 50)    
Moisture  
Dew Point 40 °F    
Average Humidity 48    
Maximum Humidity 71    
Minimum Humidity 25    
Precipitation  
Precipitation 0.00 in 0.08 in 0.71 in (1908)
Month to date precipitation 0.26 1.48  
Year to date precipitation 4.46 3.71  
Snow  
Snow 0.00 in 0.10 in 0.40 in (1918)
Month to date snowfall T 0.9  
Since 1 July snowfall 41.8 38.1  
Snow Depth 0.00 in    
Sea Level Pressure  
Sea Level Pressure 29.93 in    
Wind  
Wind Speed 9 mph (WNW)    
Max Wind Speed 23 mph    
Max Gust Speed 30 mph    
Visibility 10 miles    
Events      
T = Trace of Precipitation, MM = Missing Value Source: NWS Daily Summary

Daily Weather History Graph

Daily Weather History Graph

Search for Another Location

Airport or City:

Trip Planner

Search our weather history database for the weather conditions in past years. The results will help you decide how hot, cold, wet, or windy it might be!

Date:

Astronomy

May. 26, 2014 Rise Set
Actual Time 5:42 AM MDT 9:08 PM MDT
Civil Twilight 5:05 AM MDT 9:45 PM MDT
Nautical Twilight 4:16 AM MDT 10:34 PM MDT
Astronomical Twilight 3:12 AM MDT 11:38 PM MDT
Moon 4:36 AM MDT (5/26) 7:06 PM MDT (5/26)
Length of Visible Light 16h 40m
Length of Day
15h 25m
Waning Crescent, 4% of the Moon is Illuminated
May 26
Waning Crescent
May 28
New
Jun 5
First Quarter
Jun 12
Full
Jun 19
Last Quarter

Hourly Weather History & Observations

Time (MDT) Temp. Dew Point Humidity Pressure Visibility Wind Dir Wind Speed Gust Speed Precip Events Conditions
12:53 AM 63.0 °F 41.0 °F 45% 29.90 in 10.0 mi Calm Calm - N/A   Clear
1:53 AM 60.1 °F 39.9 °F 47% 29.90 in 10.0 mi SE 3.5 mph - N/A   Clear
2:53 AM 57.9 °F 39.0 °F 49% 29.91 in 10.0 mi West 3.5 mph - N/A   Clear
3:53 AM 55.9 °F 39.0 °F 53% 29.90 in 10.0 mi North 3.5 mph - N/A   Clear
4:53 AM 53.1 °F 39.9 °F 61% 29.91 in 10.0 mi NNW 8.1 mph - N/A   Clear
5:53 AM 53.6 °F 39.2 °F 58% 29.94 in 10.0 mi Calm Calm - N/A   Clear
6:53 AM 52.0 °F 42.1 °F 69% 29.95 in 10.0 mi Calm Calm - N/A   Clear
7:53 AM 57.0 °F 41.0 °F 55% 29.98 in 10.0 mi Calm Calm - N/A   Clear
8:53 AM 63.0 °F 37.9 °F 40% 29.97 in 10.0 mi West 13.8 mph - N/A   Clear
9:53 AM 62.1 °F 37.9 °F 41% 29.99 in 10.0 mi West 17.3 mph 23.0 mph N/A   Clear
10:53 AM 64.0 °F 39.0 °F 40% 29.96 in 10.0 mi West 11.5 mph - N/A   Clear
11:53 AM 69.1 °F 39.0 °F 33% 29.94 in 10.0 mi Variable 5.8 mph - N/A   Clear
12:53 PM 71.1 °F 39.9 °F 32% 29.91 in 10.0 mi Calm Calm - N/A   Clear
1:53 PM 73.9 °F 41.0 °F 30% 29.89 in 10.0 mi ENE 6.9 mph - N/A   Clear
2:53 PM 75.9 °F 41.0 °F 29% 29.87 in 10.0 mi ENE 5.8 mph - N/A   Scattered Clouds
3:53 PM 79.0 °F 39.9 °F 25% 29.85 in 10.0 mi WNW 17.3 mph 25.3 mph N/A   Mostly Cloudy
4:53 PM 78.8 °F 39.2 °F 24% 29.89 in 10.0 mi WNW 15.0 mph 25.3 mph N/A   Clear
5:53 PM 79.0 °F 39.9 °F 25% 29.85 in 10.0 mi WNW 15.0 mph 23.0 mph N/A   Clear
6:53 PM 73.9 °F 42.1 °F 32% 29.89 in 10.0 mi NNW 21.9 mph 28.8 mph N/A   Partly Cloudy
7:53 PM 70.0 °F 42.1 °F 36% 29.94 in 10.0 mi NNW 15.0 mph - N/A   Partly Cloudy
8:53 PM 68.0 °F 39.2 °F 35% 29.99 in 10.0 mi WNW 13.8 mph - N/A   Scattered Clouds
9:53 PM 64.0 °F 39.9 °F 41% 30.02 in 10.0 mi WNW 9.2 mph - N/A   Mostly Cloudy
10:53 PM 63.0 °F 39.0 °F 41% 30.04 in 10.0 mi WSW 10.4 mph - N/A   Overcast
11:53 PM 59.0 °F 39.0 °F 48% 30.04 in 10.0 mi Calm Calm - N/A   Clear